• In Belarus
  • List of Countries
  • For 7 days
  • Water Temperature
  • Satellite Maps
  • Weather Map
  • Weather Widgets
  • user-avatar
    Login

    Hourly Weather Bulle

    Today, 11 December, Monday

    Time Temperature Precipitation Wind Pressure Humidity
    00:00 +4°C° 0 mm 4 mps 673 mmHg 93%
    01:00 +3°C° 0.4 mm 4 mps 673 mmHg 93%
    02:00 +3°C° 0.4 mm 3 mps 672 mmHg 92%
    03:00 +3°C° 0.4 mm 3 mps 671 mmHg 92%
    04:00 +3°C° 0.7 mm 3 mps 670 mmHg 91%
    05:00 +3°C° 0.7 mm 3 mps 670 mmHg 91%
    06:00 +3°C° 0 mm 4 mps 669 mmHg 90%
    07:00 +3°C° 0.4 mm 3 mps 669 mmHg 90%
    08:00 +3°C° 0.4 mm 3 mps 669 mmHg 90%
    09:00 +3°C° 0.4 mm 3 mps 669 mmHg 90%
    10:00 +4°C° 0.9 mm 3 mps 669 mmHg 90%
    11:00 +4°C° 0.9 mm 3 mps 669 mmHg 91%
    12:00 +4°C° 0.9 mm 3 mps 670 mmHg 92%
    13:00 +4°C° 1.9 mm 3 mps 670 mmHg 93%
    14:00 +3°C° 1.9 mm 3 mps 670 mmHg 93%
    15:00 +3°C° 1.9 mm 3 mps 670 mmHg 94%
    16:00 +3°C° 1.8 mm 4 mps 671 mmHg 94%
    17:00 +1°C° 1.8 mm 4 mps 672 mmHg 95%
    18:00 +1°C° 1.8 mm 4 mps 672 mmHg 95%
    19:00 +1°C° 0.9 mm 4 mps 673 mmHg 94%
    20:00 +1°C° 0.9 mm 4 mps 673 mmHg 93%
    21:00 +1°C° 0.9 mm 4 mps 674 mmHg 92%
    22:00 +1°C° 0.3 mm 4 mps 675 mmHg 92%
    23:00 0°C° 0.3 mm 4 mps 676 mmHg 91%

    Tomorrow, 12 December, Tuesday

    Time Temperature Precipitation Wind Pressure Humidity
    00:00 0°C° 0.3 mm 4 mps 676 mmHg 91%
    01:00 -1°C° 0.4 mm 4 mps 677 mmHg 92%
    02:00 0°C° 0.4 mm 3 mps 678 mmHg 93%
    03:00 -1°C° 0.4 mm 3 mps 679 mmHg 94%
    04:00 -1°C° 0.4 mm 2 mps 680 mmHg 95%
    05:00 -1°C° 0.4 mm 2 mps 681 mmHg 95%
    06:00 -2°C° 0.4 mm 2 mps 683 mmHg 96%
    07:00 -1°C° 0.4 mm 2 mps 684 mmHg 96%
    08:00 -1°C° 0.4 mm 2 mps 685 mmHg 96%
    09:00 -1°C° 0.4 mm 2 mps 686 mmHg 96%
    10:00 -1°C° 0.4 mm 2 mps 686 mmHg 95%
    11:00 +1°C° 0.4 mm 2 mps 687 mmHg 94%
    12:00 +1°C° 0.4 mm 2 mps 687 mmHg 94%
    13:00 +1°C° 0.2 mm 2 mps 688 mmHg 94%
    14:00 -1°C° 0.2 mm 2 mps 688 mmHg 94%
    15:00 -1°C° 0.2 mm 2 mps 689 mmHg 94%
    16:00 -2°C° 0.1 mm 2 mps 689 mmHg 95%
    17:00 -1°C° 0.1 mm 1 mps 690 mmHg 95%
    18:00 -2°C° 0.1 mm 1 mps 691 mmHg 96%
    19:00 -3°C° 0 mm 1 mps 691 mmHg 96%
    20:00 -4°C° 0 mm 1 mps 692 mmHg 95%
    21:00 -4°C° 0 mm 1 mps 693 mmHg 95%
    22:00 -6°C° 0 mm 1 mps 693 mmHg 93%
    23:00 -7°C° 0 mm 2 mps 693 mmHg 92%

    Day after tomorrow, 13 December, Wednesday

    Time Temperature Precipitation Wind Pressure Humidity
    00:00 -8°C° 0 mm 2 mps 693 mmHg 90%
    01:00 -8°C° 0 mm 2 mps 693 mmHg 86%
    02:00 -8°C° 0 mm 2 mps 692 mmHg 81%
    03:00 -9°C° 0 mm 2 mps 692 mmHg 77%
    04:00 -9°C° 0 mm 2 mps 692 mmHg 75%
    05:00 -8°C° 0 mm 2 mps 692 mmHg 74%
    06:00 -8°C° 0 mm 2 mps 692 mmHg 72%
    07:00 -7°C° 0 mm 2 mps 692 mmHg 72%
    08:00 -5°C° 0 mm 2 mps 692 mmHg 72%
    09:00 -4°C° 0 mm 2 mps 692 mmHg 71%
    10:00 -2°C° 0 mm 3 mps 691 mmHg 71%
    11:00 0°C° 0 mm 3 mps 691 mmHg 71%
    12:00 +2°C° 0 mm 3 mps 690 mmHg 70%
    13:00 +1°C° 0.4 mm 4 mps 690 mmHg 75%
    14:00 0°C° 0.4 mm 4 mps 690 mmHg 80%
    15:00 0°C° 0.4 mm 4 mps 689 mmHg 86%
    16:00 0°C° 0.4 mm 4 mps 689 mmHg 87%
    17:00 0°C° 0.4 mm 4 mps 689 mmHg 89%
    18:00 +1°C° 0.4 mm 3 mps 689 mmHg 91%
    19:00 +1°C° 0.5 mm 4 mps 689 mmHg 91%
    20:00 +1°C° 0.5 mm 4 mps 688 mmHg 92%
    21:00 +3°C° 0.5 mm 4 mps 688 mmHg 92%
    22:00 +2°C° 1 mm 5 mps 688 mmHg 92%
    23:00 +2°C° 1 mm 5 mps 687 mmHg 93%

    14 December, Thursday

    Time Temperature Precipitation Wind Pressure Humidity
    00:00 +3°C° 1 mm 5 mps 687 mmHg 94%
    01:00 +3°C° 1.1 mm 5 mps 686 mmHg 94%
    02:00 +3°C° 1.1 mm 5 mps 686 mmHg 95%
    03:00 +4°C° 1.1 mm 4 mps 686 mmHg 95%
    04:00 +4°C° 1.1 mm 4 mps 686 mmHg 95%
    05:00 +4°C° 1.1 mm 4 mps 686 mmHg 96%
    06:00 +4°C° 1.1 mm 4 mps 686 mmHg 96%
    07:00 +4°C° 0.7 mm 4 mps 686 mmHg 96%
    08:00 +4°C° 0.7 mm 4 mps 686 mmHg 95%
    09:00 +4°C° 0.7 mm 4 mps 685 mmHg 95%
    10:00 +3°C° 0.3 mm 5 mps 685 mmHg 95%
    11:00 +3°C° 0.3 mm 5 mps 684 mmHg 94%
    12:00 +3°C° 0.3 mm 5 mps 684 mmHg 94%
    13:00 +3°C° 0.4 mm 6 mps 683 mmHg 93%
    14:00 +3°C° 0.4 mm 6 mps 683 mmHg 92%
    15:00 +3°C° 0.4 mm 6 mps 682 mmHg 92%
    16:00 +2°C° 1 mm 6 mps 682 mmHg 92%
    17:00 +2°C° 1 mm 6 mps 682 mmHg 92%
    18:00 +2°C° 1 mm 6 mps 682 mmHg 93%
    19:00 +2°C° 1.4 mm 6 mps 682 mmHg 93%
    20:00 +2°C° 1.4 mm 6 mps 682 mmHg 94%
    21:00 +2°C° 1.4 mm 6 mps 682 mmHg 94%
    22:00 +2°C° 1.3 mm 5 mps 682 mmHg 94%
    23:00 +1°C° 1.3 mm 5 mps 682 mmHg 95%

    15 December, Friday

    Time Temperature Precipitation Wind Pressure Humidity
    00:00 +1°C° 1.3 mm 5 mps 682 mmHg 95%
    01:00 +1°C° 1.5 mm 4 mps 681 mmHg 95%
    02:00 +1°C° 1.5 mm 3 mps 681 mmHg 95%
    03:00 +1°C° 1.5 mm 3 mps 681 mmHg 95%
    04:00 0°C° 0.9 mm 3 mps 681 mmHg 95%
    05:00 0°C° 0.9 mm 3 mps 681 mmHg 95%
    06:00 -1°C° 0.9 mm 2 mps 681 mmHg 95%
    07:00 -1°C° 0.3 mm 3 mps 681 mmHg 94%
    08:00 -1°C° 0.3 mm 3 mps 682 mmHg 93%
    09:00 -1°C° 0.3 mm 3 mps 682 mmHg 92%
    10:00 -1°C° 0.1 mm 3 mps 682 mmHg 90%
    11:00 -1°C° 0.1 mm 4 mps 682 mmHg 89%
    12:00 -1°C° 0.1 mm 4 mps 681 mmHg 87%
    13:00 -2°C° 0.3 mm 4 mps 681 mmHg 89%
    14:00 -2°C° 0.3 mm 4 mps 681 mmHg 90%
    15:00 -1°C° 0.3 mm 3 mps 681 mmHg 92%
    16:00 -2°C° 0.8 mm 3 mps 682 mmHg 93%
    17:00 -2°C° 0.8 mm 3 mps 683 mmHg 94%
    18:00 -2°C° 0.8 mm 3 mps 684 mmHg 95%
    19:00 -2°C° 0.4 mm 3 mps 684 mmHg 95%
    20:00 -4°C° 0.4 mm 3 mps 685 mmHg 95%
    21:00 -3°C° 0.4 mm 2 mps 686 mmHg 95%
    22:00 -4°C° 0.3 mm 3 mps 686 mmHg 95%
    23:00 -4°C° 0.3 mm 3 mps 687 mmHg 95%

    16 December, Saturday

    Time Temperature Precipitation Wind Pressure Humidity
    00:00 -4°C° 0.3 mm 3 mps 687 mmHg 95%
    01:00 -5°C° 0.3 mm 3 mps 687 mmHg 95%
    02:00 -5°C° 0.3 mm 3 mps 688 mmHg 95%
    03:00 -5°C° 0.3 mm 3 mps 688 mmHg 95%
    04:00 -4°C° 0.2 mm 2 mps 689 mmHg 95%
    05:00 -4°C° 0.2 mm 2 mps 689 mmHg 95%
    06:00 -4°C° 0.2 mm 2 mps 690 mmHg 95%
    07:00 -4°C° 0.1 mm 2 mps 690 mmHg 94%
    08:00 -4°C° 0.1 mm 2 mps 690 mmHg 93%
    09:00 -4°C° 0.1 mm 2 mps 691 mmHg 92%
    10:00 -3°C° 0.1 mm 2 mps 691 mmHg 91%
    11:00 -2°C° 0.1 mm 2 mps 691 mmHg 90%
    12:00 -2°C° 0.1 mm 3 mps 691 mmHg 89%
    13:00 -2°C° 0.1 mm 2 mps 691 mmHg 90%
    14:00 -3°C° 0.1 mm 2 mps 691 mmHg 91%
    15:00 -3°C° 0.1 mm 2 mps 691 mmHg 93%
    16:00 -4°C° 0 mm 2 mps 691 mmHg 93%
    17:00 -5°C° 0 mm 2 mps 691 mmHg 93%
    18:00 -6°C° 0 mm 2 mps 692 mmHg 94%
    19:00 -7°C° 0 mm 2 mps 692 mmHg 93%
    20:00 -7°C° 0 mm 2 mps 692 mmHg 92%
    21:00 -8°C° 0 mm 2 mps 692 mmHg 92%
    22:00 -8°C° 0 mm 2 mps 692 mmHg 91%
    23:00 -8°C° 0 mm 2 mps 692 mmHg 90%
    Show more